Regional Weather Roundup
Issued by NWS

Home | Current Version | Previous Version | Graphics & Text | Print | Product List | Glossary On
Versions: 1 2 3 4 5 6 7 8 9 10 11 12 13 14 15 16 17 18 19 20 21 22 23 24 25 26 27 28
000
ASUS45 KCYS 281710
RWRWY

WYOMING REGIONAL WEATHER ROUNDUP
NATIONAL WEATHER SERVICE CHEYENNE WY
1100 AM MDT THU APR 28 2016

NOTE:  "FAIR" INDICATES FEW OR NO CLOUDS BELOW 12,000 FEET
WITH NO SIGNIFICANT WEATHER AND/OR OBSTRUCTIONS TO VISIBILITY.

WYZ001-281800-
YELLOWSTONE NATIONAL PARK

CITY           SKY/WX    TMP DP  RH WIND       PRES   REMARKS
LK YELLOWSTONE   N/A     33  21  61 VRB5      29.90S WCI  29
W YELLOWSTONE  NOT AVBL

$$
WYZ002>013-054>058-071-098>099-281800-
NORTHERN WYOMING

CITY           SKY/WX    TMP DP  RH WIND       PRES   REMARKS
JACKSON        CLOUDY    45  25  45 N13       29.83F
CODY           CLOUDY    34  28  80 N13       30.00S WCI  25
GREYBULL       CLOUDY    39  31  72 CALM      30.01R
WORLAND        CLOUDY    37  29  72 W5        30.01R WCI  33
SHERIDAN       CLOUDY    37  33  85 NE8       30.06R WCI  31
BUFFALO        CLOUDY    34  28  79 N6        30.03R WCI  29
GILLETTE       LGT SNOW  33  31  92 N8        30.03R FOG     WCI  26
HULETT         CLOUDY    34  32  93 N8        30.04R FOG     WCI  27
NEWCASTLE      CLOUDY    37  27  65 W3        30.01R

$$
WYZ014>020-022>026-101>103-281800-
CENTRAL WYOMING

CITY           SKY/WX    TMP DP  RH WIND       PRES   REMARKS
BIG PINEY      FAIR      38  29  70 VRB3      29.86S
PINEDALE       CLOUDY    39  27  60 NW3       29.84S
DUBOIS         CLOUDY    28  27  93 SE10G16   29.91R WCI  19
LANDER         CLOUDY    32  29  88 NE5       29.97R FOG     WCI  27
RIVERTON       CLOUDY    34  28  79 NE9       29.98R WCI  27
CASPER         CLOUDY    34  26  72 NE12      29.98S WCI  25
DOUGLAS        CLOUDY    34  28  79 N8        30.02R WCI  27

$$
WYZ021-027>030-104>119-281800-
SOUTHERN WYOMING

CITY           SKY/WX    TMP DP  RH WIND       PRES   REMARKS
EVANSTON       CLOUDY    33  26  75 E22G30    29.81R WCI  21
KEMMERER       CLOUDY    32  27  80 E18       29.85S WCI  20
FORT BRIDGER   LGT SNOW  32  32 100 E14       29.88R WCI  22
ROCK SPRINGS   CLOUDY    34  25  69 NE26G32   29.85S WCI  21
DIXON          LGT RAIN  38  33  81 S6        29.82R WCI  34
RAWLINS        CLOUDY    32  23  69 E18G28    29.90S WCI  20
SARATOGA       CLOUDY    34  27  75 N6        29.87S WCI  29
LARAMIE        CLOUDY    29  24  82 E14       29.91S WCI  18
CHEYENNE       CLOUDY    34  26  72 NE5       29.96S WCI  30
TORRINGTON     CLOUDY    43  26  51 VRB7      29.99F
PINE BLUFFS    CLOUDY    36  30  80 NE9       29.99S WCI  29

$$




USA.gov is the U.S. government's official web portal to all federal, state and local government web resources and services.